Location: Coopersdale
(40.3556°N, 78.9372°W)
Time: 19:06:12
(UTC+00:00)

Transit 4A - Pass Details

Date: 23 January 2021
Orbit: 866 x 978 km, 66.8° (Epoch: 26 February)

Event Time Altitude Azimuth Distance (km) Brightness Sun altitude
Rises 09:18:00 0° 332° (NNW) 3,622 - -36.9°
Reaches altitude 10° 09:20:35 10° 334° (NNW) 2,658 - -36.4°
Maximum altitude 09:26:46 72° 59° (ENE) 963 - -35.2°
Exits shadow 09:29:07 39° 134° (SE) 1,345 8.9 -34.7°
Drops below altitude 10° 09:32:43 10° 144° (SE) 2,564 10.5 -34.1°
Sets 09:35:11 0° 146° (SSE) 3,486 11.3 -33.6°
